Regional Weather Roundup
Issued by NWS

Home | Current Version | Previous Version | Text Only | Print | Product List | Glossary Off
Versions: 1 2 3 4 5 6 7 8 9 10 11 12 13 14 15 16 17 18 19 20 21 22 23 24 25 26 27 28 29 30 31 32 33 34 35 36 37 38 39 40 41 42 43 44 45 46 47 48 49 50

000
ASUS43 KLSX 312057
RWRMO

WEATHER SUMMARY FOR MISSOURI
NATIONAL WEATHER SERVICE SPRINGFIELD MO
400 PM CDT WED AUG 31 2016

NOTE: "FAIR" INDICATES FEW OR NO CLOUDS BELOW 12,000 FEET WITH NO
       SIGNIFICANT WEATHER AND/OR OBSTRUCTIONS TO VISIBILITY.
       CURRENT SKY AND/OR WEATHER CONDITIONS ARE NOT AVAILABLE FOR
       CHILLICOTHE AND FARMINGTON.

MOZ001>031-035>038-043-044-053-054-312200-
...NORTHERN AND WESTERN MISSOURI...

CITY           SKY/WX    TMP DP  RH WIND       PRES   REMARKS
KANSAS CTY INT CLOUDY    79  67  66 N10       30.10S
ST JOSEPH      CLOUDY    80  69  69 N12       30.10F
CHILLICOTHE      N/A     82  64  54 NE7       30.09F

$$
MOZ066>068-077>081-088>096-101>105-312200-
...SOUTHWEST MISSOURI...

CITY           SKY/WX    TMP DP  RH WIND       PRES   REMARKS
SPRINGFIELD    MOSUNNY   82  69  64 NE13      30.06F
JOPLIN         CLOUDY    83  73  72 N9        30.05F
BRANSON        PTSUNNY   81  72  74 N5        30.06F

$$
MOZ032>034-039>042-045>050-055>058-069>072-312200-
...CENTRAL MISSOURI...

CITY           SKY/WX    TMP DP  RH WIND       PRES   REMARKS
COLUMBIA       RAIN      73  70  88 SE3       30.06F FOG
JEFFERSON CITY CLOUDY    80  72  76 CALM      30.04F
ROLLA          CLOUDY    76  72  87 W7        30.06F
SEDALIA        CLOUDY    80  70  71 CALM      30.07F
OSAGE BEACH    LGT RAIN  72  70  94 CALM      30.08F

$$
MOZ051-052-059>065-312200-
...EAST CENTRAL MISSOURI...

CITY           SKY/WX    TMP DP  RH WIND       PRES   REMARKS
ST LOUIS INTL  CLOUDY    82  73  74 N10       30.03F

$$
MOZ072>076-082>087-097>100-106>115-312200-
...SOUTH CENTRAL AND SOUTHEAST MISSOURI...

CITY           SKY/WX    TMP DP  RH WIND       PRES   REMARKS
CAPE GIRARDEAU SUNNY     89  68  49 N12       29.96F HX  93
POPLAR BLUFF   SUNNY     90  71  53 N9        29.95F HX  96
WEST PLAINS    CLOUDY    82  71  69 N9        30.06F

$$



USA.gov is the U.S. government's official web portal to all federal, state and local government web resources and services.